Wind_Speed
47 46 46 46 45 45 43 42 42 41 39 40 40 39 38 38 38 37 38 38 37 37 38 37 38 38 38 39 38 39 38 38 39 39 39 39 39 39
49 49 48 48 46 46 44 44 43 43 42 40 41 41 40 39 39 38 38 39 39 39 39 39 39 39 39 39 40 40 40 40 41 41 41 40 40 40
51 51 50 49 48 47 47 46 45 44 44 43 42 41 42 41 40 40 39 39 39 40 40 40 40 41 41 41 41 41 41 42 42 42 42 42 42 41
50 49 49 49 49 48 48 48 47 46 45 44 44 43 43 42 42 41 41 41 40 40 41 40 40 41 41 41 42 42 41 41 42 42 42 42 42 42
49 48 49 49 49 49 49 49 49 47 46 46 45 45 45 44 43 43 43 42 42 42 42 41 41 41 42 41 41 41 42 42 42 43 43 43 43 42
50 50 50 50 50 50 50 50 50 49 48 47 46 46 46 46 45 45 44 44 44 43 43 43 43 43 43 42 42 42 42 42 42 43 43 43 43 43
49 50 51 50 50 51 51 50 50 50 49 48 47 47 47 48 48 47 46 46 45 44 44 44 45 45 45 44 43 43 43 43 43 43 43 43 43 43
49 49 49 49 51 51 51 51 51 51 50 49 48 47 47 48 49 49 49 48 46 45 45 45 45 45 46 45 45 45 44 44 43 44 44 44 44 44
50 48 48 49 50 50 51 52 52 51 51 50 49 48 48 48 49 49 49 49 48 48 47 46 46 45 46 46 46 46 46 46 45 45 45 45 45 45
48 48 49 49 49 49 50 51 52 51 51 51 50 50 49 49 49 50 50 50 50 49 49 48 47 47 47 47 47 46 46 47 47 47 47 47 47 47
48 48 48 49 50 50 50 51 51 51 52 52 52 52 52 52 52 52 52 52 51 50 50 49 48 48 48 48 48 48 48 48 48 48 48 48 47 47
48 47 47 49 49 50 49 50 50 51 52 52 52 52 53 53 53 53 53 53 53 52 51 51 51 50 50 49 49 49 49 49 49 49 49 49 49 48
48 48 47 48 49 49 50 50 50 50 51 52 52 53 53 53 53 54 54 54 54 53 52 52 52 52 52 50 50 50 50 50 51 50 50 50 49 48
47 48 48 48 48 48 49 50 51 50 50 51 52 53 53 53 53 54 54 54 54 53 52 52 52 53 53 53 52 52 52 52 52 52 51 50 49 48
46 47 48 48 49 49 49 50 50 50 49 50 51 52 53 53 53 53 54 54 54 54 53 53 53 54 54 54 54 54 53 53 53 52 51 50 50 49
45 45 46 48 49 49 49 49 49 50 50 50 51 51 52 52 52 53 53 54 54 54 53 53 54 54 54 54 54 54 54 53 52 51 50 50 50 50
42 43 44 46 47 48 48 48 49 49 50 50 51 51 51 51 51 51 51 52 52 52 52 53 53 53 53 53 53 53 52 51 50 50 49 49 49 49
40 41 43 43 44 45 46 47 48 48 49 49 49 50 50 49 49 48 49 50 50 50 51 51 52 51 51 51 51 50 49 48 48 48 48 47 46 46
39 40 41 42 43 43 44 45 45 45 46 46 47 48 49 48 47 47 47 47 48 48 48 49 49 50 50 49 48 48 46 46 46 45 44 44 44 43
38 39 40 40 41 41 42 42 43 43 44 44 45 46 47 47 46 45 45 45 46 46 46 47 47 48 47 46 45 45 45 45 44 43 43 42 42 42
36 37 37 38 38 39 40 40 41 42 43 43 43 43 44 44 44 44 43 44 44 44 44 44 45 44 44 43 43 42 43 43 43 42 42 41 41 41
36 36 36 37 37 38 38 40 40 41 41 42 41 41 41 41 41 41 41 41 42 42 42 41 41 41 41 41 41 41 41 41 41 40 40 40 40 40
36 36 36 36 36 37 37 38 39 39 39 40 40 40 40 40 40 40 39 39 40 40 40 40 40 40 40 41 40 40 40 40 40 40 39 39 39 38
Wind_Direction
250 250 251 252 253 254 255 256 256 256 257 258 258 260 262 264 265 266 268 269 270 271 272 274 276 277 278 279 280 280 281 282 283 285 285 285 286 286
250 250 250 251 253 253 254 255 256 256 257 258 258 259 260 262 264 265 268 269 270 271 272 273 275 277 278 279 280 280 280 282 283 284 284 285 285 286
251 251 251 251 252 252 252 254 255 256 257 257 259 260 260 261 262 264 267 269 270 271 272 273 275 276 277 278 278 279 280 281 281 282 283 284 284 285
251 250 250 251 252 252 253 254 256 256 256 258 259 260 261 261 262 263 265 268 270 272 272 274 276 277 278 278 278 278 279 279 281 282 282 283 284 285
250 249 249 250 251 252 254 255 256 256 257 258 258 259 260 261 261 263 265 267 270 271 272 274 275 276 277 277 277 277 278 279 280 282 282 283 285 285
251 250 250 252 252 253 253 254 255 255 257 257 258 259 260 261 262 264 265 267 269 271 272 273 274 275 276 277 277 277 278 279 280 281 282 283 284 285
252 252 252 252 252 253 252 253 253 254 255 256 257 258 260 261 262 264 265 267 269 270 272 273 275 275 276 276 277 277 277 278 279 280 281 282 283 284
252 253 252 251 252 253 252 252 252 252 253 255 256 257 259 261 263 264 265 266 268 269 271 273 275 276 277 277 277 277 278 278 279 280 281 282 283 284
253 252 252 252 253 253 253 252 252 252 254 254 256 257 259 260 262 264 265 265 266 268 269 271 274 275 276 276 276 277 277 278 279 280 281 282 283 283
252 252 252 253 253 254 253 253 253 254 254 255 257 258 259 261 263 264 264 265 266 267 269 270 272 273 274 275 277 277 278 279 279 280 281 281 282 283
252 252 252 253 254 254 254 254 254 254 255 255 257 258 260 261 263 264 264 264 265 267 267 269 271 272 274 274 275 276 277 278 279 280 281 282 283 283
252 252 252 253 254 255 254 254 255 256 257 257 257 258 260 261 262 263 263 263 265 266 267 268 269 271 272 274 274 275 277 278 279 280 281 281 282 283
251 251 252 254 255 256 256 255 257 258 258 258 258 258 259 260 261 262 263 263 265 266 267 268 269 270 271 272 273 275 276 277 278 279 280 280 281 281
251 252 253 254 255 255 256 256 258 260 260 259 259 259 260 261 261 262 263 264 265 266 267 268 269 270 271 272 273 274 275 277 277 278 279 279 279 280
252 253 253 254 255 256 257 257 258 259 260 260 260 260 261 261 261 262 263 264 265 266 267 268 269 271 272 273 274 275 275 276 277 276 276 276 278 279
254 254 254 254 255 256 257 257 257 258 260 261 261 261 261 261 261 262 263 264 265 266 267 269 269 270 272 274 275 276 276 276 276 275 275 276 277 278
253 253 254 255 256 257 258 258 258 259 260 261 261 262 262 262 262 262 263 264 265 266 268 269 270 271 272 274 275 276 276 275 275 276 276 276 276 276
253 254 255 255 256 257 258 258 258 259 260 261 262 262 262 261 262 262 263 264 265 266 268 269 271 271 272 273 274 275 275 275 275 275 275 275 275 276
253 255 256 255 256 257 258 258 258 259 260 261 261 261 261 261 262 263 264 265 266 267 269 270 271 272 272 273 274 274 274 274 275 275 275 275 275 275
256 258 258 257 257 257 257 257 258 258 260 261 262 262 262 261 262 263 264 265 267 268 270 271 271 272 273 273 272 273 274 274 274 274 275 276 277 276
258 260 260 259 259 258 258 258 259 259 259 260 261 262 262 261 262 263 265 267 268 269 270 271 272 272 273 272 272 272 273 275 275 274 275 276 276 276
259 260 260 261 260 260 260 260 261 261 260 260 261 261 262 262 263 264 266 267 268 268 269 270 271 271 272 272 272 273 273 275 275 275 276 276 276 276
260 260 260 261 261 261 262 262 262 262 261 260 261 261 262 263 264 264 266 267 268 269 269 269 270 271 272 272 272 273 274 274 275 275 276 277 277 277
Height
5709 5711 5714 5716 5718 5721 5723 5725 5727 5729 5732 5733 5735 5736 5737 5739 5739 5739 5739 5739 5739 5739 5739 5738 5737 5736 5735 5733 5731 5730 5728 5726 5724 5722 5721 5718 5716 5714
5697 5700 5702 5705 5707 5710 5712 5714 5716 5718 5721 5723 5724 5726 5727 5728 5729 5729 5729 5729 5729 5729 5728 5728 5727 5726 5724 5723 5721 5719 5717 5716 5714 5712 5710 5708 5706 5704
5685 5687 5690 5693 5695 5698 5700 5702 5704 5707 5709 5712 5713 5714 5716 5717 5718 5719 5719 5719 5719 5718 5718 5717 5716 5715 5713 5712 5710 5708 5706 5705 5703 5701 5699 5697 5695 5693
5672 5675 5678 5680 5683 5686 5688 5691 5693 5695 5698 5700 5702 5703 5704 5705 5707 5708 5708 5708 5708 5708 5707 5706 5705 5703 5701 5700 5698 5696 5695 5693 5691 5690 5688 5686 5684 5682
5659 5662 5665 5668 5670 5673 5676 5678 5681 5683 5685 5688 5690 5691 5692 5694 5695 5696 5696 5697 5697 5696 5696 5695 5693 5692 5690 5688 5687 5685 5683 5682 5680 5678 5676 5674 5672 5670
5647 5649 5652 5655 5657 5660 5663 5665 5668 5671 5673 5675 5677 5679 5680 5681 5683 5684 5685 5685 5685 5684 5684 5683 5682 5680 5678 5677 5675 5674 5672 5670 5668 5667 5665 5663 5661 5659
5634 5636 5639 5642 5644 5647 5650 5652 5655 5658 5660 5662 5664 5666 5668 5669 5670 5671 5672 5672 5672 5671 5671 5671 5670 5668 5666 5665 5663 5662 5660 5658 5657 5655 5653 5651 5649 5647
5621 5623 5626 5629 5631 5634 5636 5639 5642 5644 5647 5649 5651 5654 5655 5656 5657 5658 5658 5659 5660 5660 5659 5658 5657 5655 5654 5652 5651 5649 5648 5646 5645 5643 5641 5639 5638 5635
5607 5610 5613 5615 5618 5620 5623 5625 5628 5630 5634 5636 5638 5640 5642 5644 5644 5645 5645 5645 5646 5646 5646 5645 5644 5643 5642 5640 5638 5637 5636 5634 5632 5631 5629 5627 5625 5623
5594 5597 5600 5602 5605 5607 5609 5612 5614 5617 5620 5623 5626 5627 5628 5629 5630 5631 5631 5632 5632 5632 5632 5633 5631 5630 5629 5628 5626 5624 5623 5621 5620 5618 5616 5614 5612 5610
5581 5584 5586 5589 5592 5594 5597 5599 5602 5603 5605 5608 5610 5612 5613 5615 5616 5616 5617 5618 5619 5619 5618 5619 5619 5618 5616 5615 5613 5611 5610 5608 5607 5605 5603 5601 5599 5597
5568 5571 5573 5576 5578 5580 5582 5585 5587 5589 5591 5593 5595 5597 5598 5600 5601 5602 5603 5604 5604 5605 5605 5605 5604 5604 5604 5602 5600 5598 5596 5595 5593 5592 5590 5588 5585 5583
5554 5557 5560 5562 5564 5566 5569 5571 5573 5575 5577 5579 5581 5582 5584 5585 5586 5587 5588 5589 5590 5591 5591 5590 5590 5589 5588 5589 5587 5585 5583 5581 5580 5578 5575 5573 5571 5570
5541 5544 5546 5549 5551 5553 5555 5557 5559 5561 5562 5564 5566 5568 5569 5570 5572 5573 5573 5574 5575 5576 5576 5575 5575 5574 5574 5573 5573 5571 5569 5567 5565 5563 5561 5559 5557 5556
5528 5531 5533 5535 5537 5539 5541 5543 5545 5546 5548 5550 5552 5553 5554 5555 5556 5557 5558 5559 5560 5560 5560 5559 5559 5559 5558 5558 5557 5556 5555 5553 5550 5548 5547 5545 5544 5543
5515 5517 5519 5521 5523 5526 5528 5529 5531 5533 5535 5536 5538 5538 5539 5540 5541 5542 5543 5544 5544 5545 5544 5544 5543 5543 5542 5541 5541 5540 5539 5537 5536 5534 5532 5531 5530 5528
5502 5504 5506 5508 5510 5512 5514 5515 5517 5519 5520 5522 5523 5524 5525 5526 5526 5527 5528 5528 5529 5530 5530 5529 5528 5527 5527 5526 5525 5524 5523 5522 5520 5519 5518 5517 5515 5514
5490 5492 5494 5495 5497 5499 5500 5502 5503 5505 5506 5507 5509 5510 5511 5511 5512 5513 5513 5514 5515 5515 5515 5515 5514 5513 5512 5511 5510 5509 5508 5508 5507 5505 5503 5502 5502 5500
5479 5480 5482 5483 5485 5486 5487 5489 5490 5491 5493 5494 5495 5496 5496 5497 5498 5499 5499 5500 5500 5500 5500 5500 5499 5498 5498 5498 5498 5495 5495 5495 5493 5492 5490 5489 5488 5488
5468 5469 5470 5471 5472 5474 5475 5476 5477 5478 5480 5480 5481 5482 5483 5484 5485 5486 5486 5487 5487 5487 5486 5486 5485 5485 5485 5486 5485 5484 5481 5481 5480 5479 5478 5476 5476 5474
5458 5459 5459 5460 5461 5462 5463 5464 5465 5466 5467 5468 5468 5469 5470 5471 5472 5473 5473 5473 5473 5473 5473 5473 5473 5472 5472 5471 5471 5471 5469 5468 5467 5467 5466 5464 5464 5463
5447 5448 5448 5449 5449 5450 5451 5452 5453 5454 5454 5455 5456 5457 5457 5458 5459 5460 5461 5461 5461 5461 5461 5461 5460 5460 5459 5459 5459 5459 5458 5457 5455 5454 5453 5452 5451 5451
5436 5437 5437 5438 5438 5439 5440 5440 5441 5442 5443 5443 5444 5445 5446 5447 5447 5448 5449 5449 5449 5449 5449 5449 5448 5448 5447 5447 5447 5447 5446 5445 5444 5443 5442 5440 5439 5439